This is the latest recevied weather packets stored in our database for station/object N3FU-13. If no packets are shown the sender has not sent any weather packets the latest 10 day(s).
| Time | Temp. | Humidity | Pressure | Rain* | Wind** | Luminosity | Snow |
|---|---|---|---|---|---|---|---|
| 1777568236 | 30.56° C | 70% | 1012.6 hPa | 0 mm | - | - | - |
| 1777567336 | 30.56° C | 71% | 1012.7 hPa | 0 mm | - | - | - |
| 1777566436 | 30° C | 72% | 1012.7 hPa | 0 mm | - | - | - |
| 1777565536 | 29.44° C | 75% | 1012.8 hPa | 0 mm | - | - | - |
| 1777564636 | 29.44° C | 75% | 1012.8 hPa | 0 mm | - | - | - |
| 1777563736 | 28.89° C | 74% | 1012.8 hPa | 0 mm | - | - | - |
| 1777562836 | 29.44° C | 75% | 1012.6 hPa | 0 mm | - | - | - |
| 1777561936 | 29.44° C | 74% | 1012.7 hPa | 0 mm | - | - | - |
| 1777561036 | 28.89° C | 76% | 1012.3 hPa | 0 mm | - | - | - |
| 1777560136 | 28.33° C | 76% | 1012.5 hPa | 0 mm | - | - | - |
| 1777559236 | 28.33° C | 77% | 1012.4 hPa | 0 mm | - | - | - |
| 1777558336 | 27.78° C | 80% | 1012 hPa | 0 mm | - | - | - |
| 1777557436 | 26.67° C | 82% | 1012.3 hPa | 0 mm | - | - | - |
| 1777556536 | 26.11° C | 84% | 1012.5 hPa | 0 mm | - | - | - |
| 1777555636 | 25.56° C | 87% | 1012.5 hPa | 0 mm | - | - | - |
| 1777555506 | 25° C | 89% | 1012.9 hPa | 0 mm | - | - | - |
| 1777554741 | 25° C | 89% | 1012.9 hPa | 0 mm | - | - | - |
| 1777554739 | 25° C | 89% | 1012.9 hPa | 0 mm | - | - | - |
| 1777554736 | 25° C | 89% | 1012.9 hPa | 0 mm | - | - | - |
| 1777553836 | 25° C | 91% | 1012.9 hPa | 0 mm | - | - | - |
| 1777552936 | 24.44° C | 92% | 1012.9 hPa | 0 mm | - | - | - |
| 1777552036 | 23.89° C | 93% | 1012.9 hPa | 0 mm | - | - | - |
| 1777551136 | 23.33° C | 94% | 1012.7 hPa | 0 mm | - | - | - |
| 1777550349 | 23.33° C | 93% | 1012.3 hPa | 0 mm | - | - | - |
| 1777550236 | 23.33° C | 93% | 1012.3 hPa | 0 mm | - | - | - |
* Rain latest hour (hover to see other rain measurements)
** Current wind speed in m/s (hover to see current wind gust speed)